Location: Larrial
(48.2758°N, 4.5331°W)
Time: 18:53:14
(UTC+00:00)

Meteor 2-10 Rocket - Pass Details

Date: 09 April 2020
Orbit: 734 x 884 km, 81.2° (Epoch: 23 May)

Event Time Altitude Azimuth Distance (km) Brightness Sun altitude
Exits shadow 22:14:57 48° 238° (WSW) 1,024 4.1 -27.4°
Maximum altitude 22:16:05 59° 285° (WNW) 915 4.0 -27.5°
Drops below altitude 10° 22:21:30 10° 6° (N) 2,430 6.7 -28.0°
Sets 22:24:01 0° 10° (N) 3,391 7.5 -28.2°
